owner,sensor,date,latitude,longitude,relative_humidity,qcFlag 
DISL,ioos:station:DISL:KATA:1,2014-10-01T00:00:00Z,30.2583,-88.2131,72.23,1111122 
DISL,ioos:station:DISL:KATA:1,2014-10-01T00:30:00Z,30.2583,-88.2131,74.06,1111122 
DISL,ioos:station:DISL:KATA:1,2014-10-01T01:00:00Z,30.2583,-88.2131,73.73,1111122 
DISL,ioos:station:DISL:KATA:1,2014-10-01T01:30:00Z,30.2583,-88.2131,76.95,1111122 
DISL,ioos:station:DISL:KATA:1,2014-10-01T02:00:00Z,30.2583,-88.2131,81.0,1111122 
DISL,ioos:station:DISL:KATA:1,2014-10-01T02:30:00Z,30.2583,-88.2131,77.5,1111122 
DISL,ioos:station:DISL:KATA:1,2014-10-01T03:00:00Z,30.2583,-88.2131,78.11,1111122 
DISL,ioos:station:DISL:KATA:1,2014-10-01T03:30:00Z,30.2583,-88.2131,75.57,1111122 
DISL,ioos:station:DISL:KATA:1,2014-10-01T04:00:00Z,30.2583,-88.2131,78.97,1111122 
DISL,ioos:station:DISL:KATA:1,2014-10-01T04:30:00Z,30.2583,-88.2131,81.5,1111122 
DISL,ioos:station:DISL:KATA:1,2014-10-01T05:00:00Z,30.2583,-88.2131,80.7,1111122 
DISL,ioos:station:DISL:KATA:1,2014-10-01T05:30:00Z,30.2583,-88.2131,80.4,1111122 
DISL,ioos:station:DISL:KATA:1,2014-10-01T06:00:00Z,30.2583,-88.2131,79.92,1111122 
DISL,ioos:station:DISL:KATA:1,2014-10-01T06:30:00Z,30.2583,-88.2131,79.61,1111122 
DISL,ioos:station:DISL:KATA:1,2014-10-01T07:00:00Z,30.2583,-88.2131,79.44,1111122 
DISL,ioos:station:DISL:KATA:1,2014-10-01T07:30:00Z,30.2583,-88.2131,77.0,1111122 
DISL,ioos:station:DISL:KATA:1,2014-10-01T08:00:00Z,30.2583,-88.2131,77.68,1111122 
DISL,ioos:station:DISL:KATA:1,2014-10-01T08:30:00Z,30.2583,-88.2131,80.5,1111122 
DISL,ioos:station:DISL:KATA:1,2014-10-01T09:00:00Z,30.2583,-88.2131,83.2,1111122 
DISL,ioos:station:DISL:KATA:1,2014-10-01T09:30:00Z,30.2583,-88.2131,84.8,1111122 
DISL,ioos:station:DISL:KATA:1,2014-10-01T10:00:00Z,30.2583,-88.2131,85.2,1111122 
DISL,ioos:station:DISL:KATA:1,2014-10-01T10:30:00Z,30.2583,-88.2131,84.8,1111122 
DISL,ioos:station:DISL:KATA:1,2014-10-01T11:00:00Z,30.2583,-88.2131,84.9,1111122 
DISL,ioos:station:DISL:KATA:1,2014-10-01T11:30:00Z,30.2583,-88.2131,85.8,1111122 
DISL,ioos:station:DISL:KATA:1,2014-10-01T12:00:00Z,30.2583,-88.2131,85.1,1111122 
DISL,ioos:station:DISL:KATA:1,2014-10-01T12:30:00Z,30.2583,-88.2131,83.5,1111122 
DISL,ioos:station:DISL:KATA:1,2014-10-01T13:00:00Z,30.2583,-88.2131,79.92,1111122 
DISL,ioos:station:DISL:KATA:1,2014-10-01T13:30:00Z,30.2583,-88.2131,77.6,1111122 
DISL,ioos:station:DISL:KATA:1,2014-10-01T14:00:00Z,30.2583,-88.2131,75.96,1111122 
DISL,ioos:station:DISL:KATA:1,2014-10-01T14:30:00Z,30.2583,-88.2131,78.74,1111122 
DISL,ioos:station:DISL:KATA:1,2014-10-01T15:00:00Z,30.2583,-88.2131,77.69,1111122 
DISL,ioos:station:DISL:KATA:1,2014-10-01T15:30:00Z,30.2583,-88.2131,78.33,1111122 
DISL,ioos:station:DISL:KATA:1,2014-10-01T16:00:00Z,30.2583,-88.2131,76.5,1111122 
DISL,ioos:station:DISL:KATA:1,2014-10-01T16:30:00Z,30.2583,-88.2131,75.18,1111122 
DISL,ioos:station:DISL:KATA:1,2014-10-01T17:00:00Z,30.2583,-88.2131,75.04,1111122 
DISL,ioos:station:DISL:KATA:1,2014-10-01T17:30:00Z,30.2583,-88.2131,80.3,1111122 
DISL,ioos:station:DISL:KATA:1,2014-10-01T18:00:00Z,30.2583,-88.2131,81.2,1111122 
DISL,ioos:station:DISL:KATA:1,2014-10-01T18:30:00Z,30.2583,-88.2131,83.7,1111122 
DISL,ioos:station:DISL:KATA:1,2014-10-01T19:00:00Z,30.2583,-88.2131,82.3,1111122 
DISL,ioos:station:DISL:KATA:1,2014-10-01T19:30:00Z,30.2583,-88.2131,83.0,1111122 
DISL,ioos:station:DISL:KATA:1,2014-10-01T20:00:00Z,30.2583,-88.2131,84.4,1111122 
DISL,ioos:station:DISL:KATA:1,2014-10-01T20:30:00Z,30.2583,-88.2131,84.0,1111122 
DISL,ioos:station:DISL:KATA:1,2014-10-01T21:00:00Z,30.2583,-88.2131,83.6,1111122 
DISL,ioos:station:DISL:KATA:1,2014-10-01T21:30:00Z,30.2583,-88.2131,83.1,1111122 
DISL,ioos:station:DISL:KATA:1,2014-10-01T22:00:00Z,30.2583,-88.2131,82.4,1111122 
DISL,ioos:station:DISL:KATA:1,2014-10-01T22:30:00Z,30.2583,-88.2131,82.3,1111122 
DISL,ioos:station:DISL:KATA:1,2014-10-01T23:00:00Z,30.2583,-88.2131,81.5,1111122 
DISL,ioos:station:DISL:KATA:1,2014-10-01T23:30:00Z,30.2583,-88.2131,81.9,1111122 
DISL,ioos:station:DISL:KATA:1,2014-10-02T00:00:00Z,30.2583,-88.2131,82.3,1111122 
DISL,ioos:station:DISL:KATA:1,2014-10-02T00:30:00Z,30.2583,-88.2131,83.6,1111122 
DISL,ioos:station:DISL:KATA:1,2014-10-02T01:00:00Z,30.2583,-88.2131,84.0,1111122 
DISL,ioos:station:DISL:KATA:1,2014-10-02T01:30:00Z,30.2583,-88.2131,84.8,1111122 
DISL,ioos:station:DISL:KATA:1,2014-10-02T02:00:00Z,30.2583,-88.2131,82.1,1111122 
DISL,ioos:station:DISL:KATA:1,2014-10-02T02:30:00Z,30.2583,-88.2131,81.8,1111122 
DISL,ioos:station:DISL:KATA:1,2014-10-02T03:00:00Z,30.2583,-88.2131,82.4,1111122 
DISL,ioos:station:DISL:KATA:1,2014-10-02T03:30:00Z,30.2583,-88.2131,82.2,1111122 
DISL,ioos:station:DISL:KATA:1,2014-10-02T04:00:00Z,30.2583,-88.2131,83.7,1111122 
DISL,ioos:station:DISL:KATA:1,2014-10-02T04:30:00Z,30.2583,-88.2131,83.2,1111122 
DISL,ioos:station:DISL:KATA:1,2014-10-02T05:00:00Z,30.2583,-88.2131,82.5,1111122 
DISL,ioos:station:DISL:KATA:1,2014-10-02T05:30:00Z,30.2583,-88.2131,80.7,1111122 
DISL,ioos:station:DISL:KATA:1,2014-10-02T06:00:00Z,30.2583,-88.2131,81.6,1111122 
DISL,ioos:station:DISL:KATA:1,2014-10-02T06:30:00Z,30.2583,-88.2131,81.1,1111122 
DISL,ioos:station:DISL:KATA:1,2014-10-02T07:00:00Z,30.2583,-88.2131,81.8,1111122 
DISL,ioos:station:DISL:KATA:1,2014-10-02T07:30:00Z,30.2583,-88.2131,82.5,1111122 
DISL,ioos:station:DISL:KATA:1,2014-10-02T08:00:00Z,30.2583,-88.2131,83.8,1111122 
DISL,ioos:station:DISL:KATA:1,2014-10-02T08:30:00Z,30.2583,-88.2131,84.4,1111122 
DISL,ioos:station:DISL:KATA:1,2014-10-02T09:00:00Z,30.2583,-88.2131,85.0,1111122 
DISL,ioos:station:DISL:KATA:1,2014-10-02T09:30:00Z,30.2583,-88.2131,85.4,1111122 
DISL,ioos:station:DISL:KATA:1,2014-10-02T10:00:00Z,30.2583,-88.2131,86.3,1111122 
DISL,ioos:station:DISL:KATA:1,2014-10-02T10:30:00Z,30.2583,-88.2131,85.8,1111122 
DISL,ioos:station:DISL:KATA:1,2014-10-02T11:00:00Z,30.2583,-88.2131,85.7,1111122 
DISL,ioos:station:DISL:KATA:1,2014-10-02T11:30:00Z,30.2583,-88.2131,84.0,1111122 
DISL,ioos:station:DISL:KATA:1,2014-10-02T12:00:00Z,30.2583,-88.2131,84.9,1111122 
DISL,ioos:station:DISL:KATA:1,2014-10-02T12:30:00Z,30.2583,-88.2131,87.1,1111122 
DISL,ioos:station:DISL:KATA:1,2014-10-02T13:00:00Z,30.2583,-88.2131,87.2,1111122 
DISL,ioos:station:DISL:KATA:1,2014-10-02T13:30:00Z,30.2583,-88.2131,87.0,1111122 
DISL,ioos:station:DISL:KATA:1,2014-10-02T14:00:00Z,30.2583,-88.2131,88.0,1111122 
DISL,ioos:station:DISL:KATA:1,2014-10-02T14:30:00Z,30.2583,-88.2131,87.1,1111122 
DISL,ioos:station:DISL:KATA:1,2014-10-02T15:00:00Z,30.2583,-88.2131,86.2,1111122 
DISL,ioos:station:DISL:KATA:1,2014-10-02T15:30:00Z,30.2583,-88.2131,85.2,1111122 
DISL,ioos:station:DISL:KATA:1,2014-10-02T16:00:00Z,30.2583,-88.2131,84.7,1111122 
DISL,ioos:station:DISL:KATA:1,2014-10-02T16:30:00Z,30.2583,-88.2131,85.8,1111122 
DISL,ioos:station:DISL:KATA:1,2014-10-02T17:00:00Z,30.2583,-88.2131,85.1,1111122 
DISL,ioos:station:DISL:KATA:1,2014-10-02T17:30:00Z,30.2583,-88.2131,84.9,1111122 
DISL,ioos:station:DISL:KATA:1,2014-10-02T18:00:00Z,30.2583,-88.2131,85.9,1111122 
DISL,ioos:station:DISL:KATA:1,2014-10-02T18:30:00Z,30.2583,-88.2131,84.2,1111122 
DISL,ioos:station:DISL:KATA:1,2014-10-02T19:00:00Z,30.2583,-88.2131,84.3,1111122 
DISL,ioos:station:DISL:KATA:1,2014-10-02T19:30:00Z,30.2583,-88.2131,86.3,1111122 
DISL,ioos:station:DISL:KATA:1,2014-10-02T20:00:00Z,30.2583,-88.2131,86.6,1111122 
DISL,ioos:station:DISL:KATA:1,2014-10-02T20:30:00Z,30.2583,-88.2131,86.4,1111122 
DISL,ioos:station:DISL:KATA:1,2014-10-02T21:00:00Z,30.2583,-88.2131,87.1,1111122 
DISL,ioos:station:DISL:KATA:1,2014-10-02T21:30:00Z,30.2583,-88.2131,88.6,1111122 
DISL,ioos:station:DISL:KATA:1,2014-10-02T22:00:00Z,30.2583,-88.2131,87.2,1111122 
DISL,ioos:station:DISL:KATA:1,2014-10-02T22:30:00Z,30.2583,-88.2131,86.7,1111122 
DISL,ioos:station:DISL:KATA:1,2014-10-02T23:00:00Z,30.2583,-88.2131,87.3,1111122 
DISL,ioos:station:DISL:KATA:1,2014-10-02T23:30:00Z,30.2583,-88.2131,87.2,1111122 
DISL,ioos:station:DISL:KATA:1,2014-10-03T00:00:00Z,30.2583,-88.2131,88.1,1111122 
DISL,ioos:station:DISL:KATA:1,2014-10-03T00:30:00Z,30.2583,-88.2131,88.4,1111122 
DISL,ioos:station:DISL:KATA:1,2014-10-03T01:00:00Z,30.2583,-88.2131,88.8,1111122 
DISL,ioos:station:DISL:KATA:1,2014-10-03T01:30:00Z,30.2583,-88.2131,89.3,1111122 
DISL,ioos:station:DISL:KATA:1,2014-10-03T02:00:00Z,30.2583,-88.2131,89.7,1111122 
DISL,ioos:station:DISL:KATA:1,2014-10-03T02:30:00Z,30.2583,-88.2131,89.6,1111122 
DISL,ioos:station:DISL:KATA:1,2014-10-03T03:00:00Z,30.2583,-88.2131,90.0,1111122 
DISL,ioos:station:DISL:KATA:1,2014-10-03T03:30:00Z,30.2583,-88.2131,91.1,1111122 
DISL,ioos:station:DISL:KATA:1,2014-10-03T04:00:00Z,30.2583,-88.2131,89.5,1111122 
DISL,ioos:station:DISL:KATA:1,2014-10-03T04:30:00Z,30.2583,-88.2131,89.8,1111122 
DISL,ioos:station:DISL:KATA:1,2014-10-03T05:00:00Z,30.2583,-88.2131,89.8,1111122 
DISL,ioos:station:DISL:KATA:1,2014-10-03T05:30:00Z,30.2583,-88.2131,90.0,1111122 
DISL,ioos:station:DISL:KATA:1,2014-10-03T06:00:00Z,30.2583,-88.2131,89.4,1111122 
DISL,ioos:station:DISL:KATA:1,2014-10-03T06:30:00Z,30.2583,-88.2131,88.6,1111122 
DISL,ioos:station:DISL:KATA:1,2014-10-03T07:00:00Z,30.2583,-88.2131,89.8,1111122 
DISL,ioos:station:DISL:KATA:1,2014-10-03T07:30:00Z,30.2583,-88.2131,89.3,1111122 
DISL,ioos:station:DISL:KATA:1,2014-10-03T08:00:00Z,30.2583,-88.2131,89.3,1111122 
DISL,ioos:station:DISL:KATA:1,2014-10-03T08:30:00Z,30.2583,-88.2131,88.9,1111122 
DISL,ioos:station:DISL:KATA:1,2014-10-03T09:00:00Z,30.2583,-88.2131,89.4,1111122 
DISL,ioos:station:DISL:KATA:1,2014-10-03T09:30:00Z,30.2583,-88.2131,89.5,1111122 
DISL,ioos:station:DISL:KATA:1,2014-10-03T10:00:00Z,30.2583,-88.2131,88.9,1111122 
DISL,ioos:station:DISL:KATA:1,2014-10-03T10:30:00Z,30.2583,-88.2131,88.6,1111122 
DISL,ioos:station:DISL:KATA:1,2014-10-03T11:00:00Z,30.2583,-88.2131,89.4,1111122 
DISL,ioos:station:DISL:KATA:1,2014-10-03T11:30:00Z,30.2583,-88.2131,90.1,1111122 
DISL,ioos:station:DISL:KATA:1,2014-10-03T12:00:00Z,30.2583,-88.2131,89.0,1111122 
DISL,ioos:station:DISL:KATA:1,2014-10-03T12:30:00Z,30.2583,-88.2131,89.8,1111122 
DISL,ioos:station:DISL:KATA:1,2014-10-03T13:00:00Z,30.2583,-88.2131,90.5,1111122 
DISL,ioos:station:DISL:KATA:1,2014-10-03T13:30:00Z,30.2583,-88.2131,90.7,1111122 
DISL,ioos:station:DISL:KATA:1,2014-10-03T14:00:00Z,30.2583,-88.2131,89.9,1111122 
DISL,ioos:station:DISL:KATA:1,2014-10-03T14:30:00Z,30.2583,-88.2131,85.4,1111122 
DISL,ioos:station:DISL:KATA:1,2014-10-03T15:00:00Z,30.2583,-88.2131,82.4,1111122 
DISL,ioos:station:DISL:KATA:1,2014-10-03T15:30:00Z,30.2583,-88.2131,73.98,1111122 
DISL,ioos:station:DISL:KATA:1,2014-10-03T16:00:00Z,30.2583,-88.2131,76.66,1111122 
DISL,ioos:station:DISL:KATA:1,2014-10-03T16:30:00Z,30.2583,-88.2131,79.44,1111122 
DISL,ioos:station:DISL:KATA:1,2014-10-03T17:00:00Z,30.2583,-88.2131,79.85,1111122 
DISL,ioos:station:DISL:KATA:1,2014-10-03T17:30:00Z,30.2583,-88.2131,80.8,1111122 
DISL,ioos:station:DISL:KATA:1,2014-10-03T18:00:00Z,30.2583,-88.2131,80.1,1111122 
DISL,ioos:station:DISL:KATA:1,2014-10-03T18:30:00Z,30.2583,-88.2131,77.48,1111122 
DISL,ioos:station:DISL:KATA:1,2014-10-03T19:00:00Z,30.2583,-88.2131,79.65,1111122 
DISL,ioos:station:DISL:KATA:1,2014-10-03T19:30:00Z,30.2583,-88.2131,74.43,1111122 
DISL,ioos:station:DISL:KATA:1,2014-10-03T20:00:00Z,30.2583,-88.2131,71.79,1111122 
DISL,ioos:station:DISL:KATA:1,2014-10-03T20:30:00Z,30.2583,-88.2131,72.84,1111122 
DISL,ioos:station:DISL:KATA:1,2014-10-03T21:00:00Z,30.2583,-88.2131,75.25,1111122 
DISL,ioos:station:DISL:KATA:1,2014-10-03T21:30:00Z,30.2583,-88.2131,73.18,1111122 
DISL,ioos:station:DISL:KATA:1,2014-10-03T22:00:00Z,30.2583,-88.2131,73.52,1111122 
DISL,ioos:station:DISL:KATA:1,2014-10-03T22:30:00Z,30.2583,-88.2131,70.84,1111122 
DISL,ioos:station:DISL:KATA:1,2014-10-03T23:00:00Z,30.2583,-88.2131,72.16,1111122 
DISL,ioos:station:DISL:KATA:1,2014-10-03T23:30:00Z,30.2583,-88.2131,70.87,1111122 
DISL,ioos:station:DISL:KATA:1,2014-10-04T00:00:00Z,30.2583,-88.2131,73.35,1111122 
DISL,ioos:station:DISL:KATA:1,2014-10-04T00:30:00Z,30.2583,-88.2131,76.65,1111122 
DISL,ioos:station:DISL:KATA:1,2014-10-04T01:00:00Z,30.2583,-88.2131,73.06,1111122 
DISL,ioos:station:DISL:KATA:1,2014-10-04T01:30:00Z,30.2583,-88.2131,74.22,1111122 
DISL,ioos:station:DISL:KATA:1,2014-10-04T02:00:00Z,30.2583,-88.2131,73.85,1111122 
DISL,ioos:station:DISL:KATA:1,2014-10-04T02:30:00Z,30.2583,-88.2131,75.24,1111122 
DISL,ioos:station:DISL:KATA:1,2014-10-04T03:00:00Z,30.2583,-88.2131,73.64,1111122 
DISL,ioos:station:DISL:KATA:1,2014-10-04T03:30:00Z,30.2583,-88.2131,72.9,1111122 
DISL,ioos:station:DISL:KATA:1,2014-10-04T04:00:00Z,30.2583,-88.2131,69.91,1111122 
DISL,ioos:station:DISL:KATA:1,2014-10-04T04:30:00Z,30.2583,-88.2131,73.1,1111122 
DISL,ioos:station:DISL:KATA:1,2014-10-04T05:00:00Z,30.2583,-88.2131,74.83,1111122 
DISL,ioos:station:DISL:KATA:1,2014-10-04T05:30:00Z,30.2583,-88.2131,73.41,1111122 
DISL,ioos:station:DISL:KATA:1,2014-10-04T06:00:00Z,30.2583,-88.2131,72.9,1111122 
DISL,ioos:station:DISL:KATA:1,2014-10-04T06:30:00Z,30.2583,-88.2131,73.03,1111122 
DISL,ioos:station:DISL:KATA:1,2014-10-04T07:00:00Z,30.2583,-88.2131,78.43,1111122 
DISL,ioos:station:DISL:KATA:1,2014-10-04T07:30:00Z,30.2583,-88.2131,73.14,1111122 
DISL,ioos:station:DISL:KATA:1,2014-10-04T08:00:00Z,30.2583,-88.2131,78.6,1111122 
DISL,ioos:station:DISL:KATA:1,2014-10-04T08:30:00Z,30.2583,-88.2131,78.69,1111122 
DISL,ioos:station:DISL:KATA:1,2014-10-04T09:00:00Z,30.2583,-88.2131,79.54,1111122 
DISL,ioos:station:DISL:KATA:1,2014-10-04T09:30:00Z,30.2583,-88.2131,74.89,1111122 
DISL,ioos:station:DISL:KATA:1,2014-10-04T10:00:00Z,30.2583,-88.2131,77.37,1111122 
DISL,ioos:station:DISL:KATA:1,2014-10-04T10:30:00Z,30.2583,-88.2131,82.3,1111122 
DISL,ioos:station:DISL:KATA:1,2014-10-04T11:00:00Z,30.2583,-88.2131,76.86,1111122 
DISL,ioos:station:DISL:KATA:1,2014-10-04T11:30:00Z,30.2583,-88.2131,76.48,1111122 
DISL,ioos:station:DISL:KATA:1,2014-10-04T12:00:00Z,30.2583,-88.2131,77.07,1111122 
DISL,ioos:station:DISL:KATA:1,2014-10-04T12:30:00Z,30.2583,-88.2131,75.11,1111122 
DISL,ioos:station:DISL:KATA:1,2014-10-04T13:00:00Z,30.2583,-88.2131,77.21,1111122 
DISL,ioos:station:DISL:KATA:1,2014-10-04T13:30:00Z,30.2583,-88.2131,71.44,1111122 
DISL,ioos:station:DISL:KATA:1,2014-10-04T14:00:00Z,30.2583,-88.2131,73.41,1111122 
DISL,ioos:station:DISL:KATA:1,2014-10-04T14:30:00Z,30.2583,-88.2131,67.77,1111122 
DISL,ioos:station:DISL:KATA:1,2014-10-04T15:00:00Z,30.2583,-88.2131,69.5,1111122 
DISL,ioos:station:DISL:KATA:1,2014-10-04T15:30:00Z,30.2583,-88.2131,60.13,1111122 
DISL,ioos:station:DISL:KATA:1,2014-10-04T16:00:00Z,30.2583,-88.2131,54.77,1111122 
DISL,ioos:station:DISL:KATA:1,2014-10-04T16:30:00Z,30.2583,-88.2131,51.27,1111122 
DISL,ioos:station:DISL:KATA:1,2014-10-04T17:00:00Z,30.2583,-88.2131,45.5,1111122 
DISL,ioos:station:DISL:KATA:1,2014-10-04T17:30:00Z,30.2583,-88.2131,39.74,1111122 
DISL,ioos:station:DISL:KATA:1,2014-10-04T18:00:00Z,30.2583,-88.2131,41.81,1111122 
DISL,ioos:station:DISL:KATA:1,2014-10-04T18:30:00Z,30.2583,-88.2131,41.87,1111122 
DISL,ioos:station:DISL:KATA:1,2014-10-04T19:00:00Z,30.2583,-88.2131,45.71,1111122 
DISL,ioos:station:DISL:KATA:1,2014-10-04T19:30:00Z,30.2583,-88.2131,38.0,1111122 
DISL,ioos:station:DISL:KATA:1,2014-10-04T20:00:00Z,30.2583,-88.2131,36.55,1111122 
DISL,ioos:station:DISL:KATA:1,2014-10-04T20:30:00Z,30.2583,-88.2131,39.63,1111122 
DISL,ioos:station:DISL:KATA:1,2014-10-04T21:00:00Z,30.2583,-88.2131,35.32,1111122 
DISL,ioos:station:DISL:KATA:1,2014-10-04T21:30:00Z,30.2583,-88.2131,36.68,1111122 
DISL,ioos:station:DISL:KATA:1,2014-10-04T22:00:00Z,30.2583,-88.2131,39.59,1111122 
DISL,ioos:station:DISL:KATA:1,2014-10-04T22:30:00Z,30.2583,-88.2131,34.3,1111122 
DISL,ioos:station:DISL:KATA:1,2014-10-04T23:00:00Z,30.2583,-88.2131,36.1,1111122 
DISL,ioos:station:DISL:KATA:1,2014-10-04T23:30:00Z,30.2583,-88.2131,40.96,1111122 
DISL,ioos:station:DISL:KATA:1,2014-10-05T00:00:00Z,30.2583,-88.2131,43.67,1111122 
DISL,ioos:station:DISL:KATA:1,2014-10-05T00:30:00Z,30.2583,-88.2131,37.26,1111122 
DISL,ioos:station:DISL:KATA:1,2014-10-05T01:00:00Z,30.2583,-88.2131,48.66,1111122 
DISL,ioos:station:DISL:KATA:1,2014-10-05T01:30:00Z,30.2583,-88.2131,34.07,1111122 
DISL,ioos:station:DISL:KATA:1,2014-10-05T02:00:00Z,30.2583,-88.2131,37.73,1111122 
DISL,ioos:station:DISL:KATA:1,2014-10-05T02:30:00Z,30.2583,-88.2131,38.08,1111122 
DISL,ioos:station:DISL:KATA:1,2014-10-05T03:00:00Z,30.2583,-88.2131,40.86,1111122 
DISL,ioos:station:DISL:KATA:1,2014-10-05T03:30:00Z,30.2583,-88.2131,34.14,1111122 
DISL,ioos:station:DISL:KATA:1,2014-10-05T04:00:00Z,30.2583,-88.2131,42.01,1111122 
DISL,ioos:station:DISL:KATA:1,2014-10-05T04:30:00Z,30.2583,-88.2131,39.06,1111122 
DISL,ioos:station:DISL:KATA:1,2014-10-05T05:00:00Z,30.2583,-88.2131,37.77,1111122 
DISL,ioos:station:DISL:KATA:1,2014-10-05T05:30:00Z,30.2583,-88.2131,44.7,1111122 
DISL,ioos:station:DISL:KATA:1,2014-10-05T06:00:00Z,30.2583,-88.2131,50.36,1111122 
DISL,ioos:station:DISL:KATA:1,2014-10-05T06:30:00Z,30.2583,-88.2131,55.56,1111122 
DISL,ioos:station:DISL:KATA:1,2014-10-05T07:00:00Z,30.2583,-88.2131,41.44,1111122 
DISL,ioos:station:DISL:KATA:1,2014-10-05T07:30:00Z,30.2583,-88.2131,40.42,1111122 
DISL,ioos:station:DISL:KATA:1,2014-10-05T08:00:00Z,30.2583,-88.2131,39.84,1111122 
DISL,ioos:station:DISL:KATA:1,2014-10-05T08:30:00Z,30.2583,-88.2131,42.25,1111122 
DISL,ioos:station:DISL:KATA:1,2014-10-05T09:00:00Z,30.2583,-88.2131,44.22,1111122 
DISL,ioos:station:DISL:KATA:1,2014-10-05T09:30:00Z,30.2583,-88.2131,46.57,1111122 
DISL,ioos:station:DISL:KATA:1,2014-10-05T10:00:00Z,30.2583,-88.2131,47.86,1111122 
DISL,ioos:station:DISL:KATA:1,2014-10-05T10:30:00Z,30.2583,-88.2131,49.29,1111122 
DISL,ioos:station:DISL:KATA:1,2014-10-05T11:00:00Z,30.2583,-88.2131,45.52,1111122 
DISL,ioos:station:DISL:KATA:1,2014-10-05T11:30:00Z,30.2583,-88.2131,49.08,1111122 
DISL,ioos:station:DISL:KATA:1,2014-10-05T12:00:00Z,30.2583,-88.2131,46.91,1111122 
DISL,ioos:station:DISL:KATA:1,2014-10-05T12:30:00Z,30.2583,-88.2131,43.75,1111122 
DISL,ioos:station:DISL:KATA:1,2014-10-05T13:00:00Z,30.2583,-88.2131,41.74,1111122 
DISL,ioos:station:DISL:KATA:1,2014-10-05T13:30:00Z,30.2583,-88.2131,32.41,1111122 
DISL,ioos:station:DISL:KATA:1,2014-10-05T14:00:00Z,30.2583,-88.2131,51.98,1111122 
DISL,ioos:station:DISL:KATA:1,2014-10-05T14:30:00Z,30.2583,-88.2131,34.77,1111122 
DISL,ioos:station:DISL:KATA:1,2014-10-05T15:00:00Z,30.2583,-88.2131,32.43,1111122 
DISL,ioos:station:DISL:KATA:1,2014-10-05T15:30:00Z,30.2583,-88.2131,36.67,1111122 
DISL,ioos:station:DISL:KATA:1,2014-10-05T16:00:00Z,30.2583,-88.2131,37.45,1111122 
DISL,ioos:station:DISL:KATA:1,2014-10-05T16:30:00Z,30.2583,-88.2131,40.84,1111122 
DISL,ioos:station:DISL:KATA:1,2014-10-05T17:00:00Z,30.2583,-88.2131,37.18,1111122 
DISL,ioos:station:DISL:KATA:1,2014-10-05T17:30:00Z,30.2583,-88.2131,41.18,1111122 
DISL,ioos:station:DISL:KATA:1,2014-10-05T18:00:00Z,30.2583,-88.2131,39.79,1111122 
DISL,ioos:station:DISL:KATA:1,2014-10-05T18:30:00Z,30.2583,-88.2131,46.07,1111122 
DISL,ioos:station:DISL:KATA:1,2014-10-05T19:00:00Z,30.2583,-88.2131,50.34,1111122 
DISL,ioos:station:DISL:KATA:1,2014-10-05T19:30:00Z,30.2583,-88.2131,44.34,1111122 
DISL,ioos:station:DISL:KATA:1,2014-10-05T20:00:00Z,30.2583,-88.2131,50.14,1111122 
DISL,ioos:station:DISL:KATA:1,2014-10-05T20:30:00Z,30.2583,-88.2131,45.96,1111122 
DISL,ioos:station:DISL:KATA:1,2014-10-05T21:00:00Z,30.2583,-88.2131,45.79,1111122 
DISL,ioos:station:DISL:KATA:1,2014-10-05T21:30:00Z,30.2583,-88.2131,43.42,1111122 
DISL,ioos:station:DISL:KATA:1,2014-10-05T22:00:00Z,30.2583,-88.2131,43.76,1111122 
DISL,ioos:station:DISL:KATA:1,2014-10-05T22:30:00Z,30.2583,-88.2131,46.61,1111122 
DISL,ioos:station:DISL:KATA:1,2014-10-05T23:00:00Z,30.2583,-88.2131,46.1,1111122 
DISL,ioos:station:DISL:KATA:1,2014-10-05T23:30:00Z,30.2583,-88.2131,48.47,1111122 
DISL,ioos:station:DISL:KATA:1,2014-10-06T00:00:00Z,30.2583,-88.2131,51.56,1111122 
DISL,ioos:station:DISL:KATA:1,2014-10-06T00:30:00Z,30.2583,-88.2131,51.19,1111122 
DISL,ioos:station:DISL:KATA:1,2014-10-06T01:00:00Z,30.2583,-88.2131,55.39,1111122 
DISL,ioos:station:DISL:KATA:1,2014-10-06T01:30:00Z,30.2583,-88.2131,54.82,1111122 
DISL,ioos:station:DISL:KATA:1,2014-10-06T02:00:00Z,30.2583,-88.2131,60.11,1111122 
DISL,ioos:station:DISL:KATA:1,2014-10-06T02:30:00Z,30.2583,-88.2131,56.21,1111122 
DISL,ioos:station:DISL:KATA:1,2014-10-06T03:00:00Z,30.2583,-88.2131,53.7,1111122 
DISL,ioos:station:DISL:KATA:1,2014-10-06T03:30:00Z,30.2583,-88.2131,53.97,1111122 
DISL,ioos:station:DISL:KATA:1,2014-10-06T04:00:00Z,30.2583,-88.2131,57.43,1111122 
DISL,ioos:station:DISL:KATA:1,2014-10-06T04:30:00Z,30.2583,-88.2131,59.91,1111122 
DISL,ioos:station:DISL:KATA:1,2014-10-06T05:00:00Z,30.2583,-88.2131,61.13,1111122 
DISL,ioos:station:DISL:KATA:1,2014-10-06T05:30:00Z,30.2583,-88.2131,56.75,1111122 
DISL,ioos:station:DISL:KATA:1,2014-10-06T06:00:00Z,30.2583,-88.2131,62.89,1111122 
DISL,ioos:station:DISL:KATA:1,2014-10-06T06:30:00Z,30.2583,-88.2131,61.57,1111122 
DISL,ioos:station:DISL:KATA:1,2014-10-06T07:00:00Z,30.2583,-88.2131,62.65,1111122 
DISL,ioos:station:DISL:KATA:1,2014-10-06T07:30:00Z,30.2583,-88.2131,62.21,1111122 
DISL,ioos:station:DISL:KATA:1,2014-10-06T08:00:00Z,30.2583,-88.2131,59.84,1111122 
DISL,ioos:station:DISL:KATA:1,2014-10-06T08:30:00Z,30.2583,-88.2131,62.08,1111122 
DISL,ioos:station:DISL:KATA:1,2014-10-06T09:00:00Z,30.2583,-88.2131,61.33,1111122 
DISL,ioos:station:DISL:KATA:1,2014-10-06T09:30:00Z,30.2583,-88.2131,59.26,1111122 
DISL,ioos:station:DISL:KATA:1,2014-10-06T10:00:00Z,30.2583,-88.2131,61.02,1111122 
DISL,ioos:station:DISL:KATA:1,2014-10-06T10:30:00Z,30.2583,-88.2131,58.31,1111122 
DISL,ioos:station:DISL:KATA:1,2014-10-06T11:00:00Z,30.2583,-88.2131,60.92,1111122 
DISL,ioos:station:DISL:KATA:1,2014-10-06T11:30:00Z,30.2583,-88.2131,58.96,1111122 
DISL,ioos:station:DISL:KATA:1,2014-10-06T12:00:00Z,30.2583,-88.2131,60.41,1111122 
DISL,ioos:station:DISL:KATA:1,2014-10-06T12:30:00Z,30.2583,-88.2131,63.09,1111122 
DISL,ioos:station:DISL:KATA:1,2014-10-06T13:00:00Z,30.2583,-88.2131,59.36,1111122 
DISL,ioos:station:DISL:KATA:1,2014-10-06T13:30:00Z,30.2583,-88.2131,58.61,1111122 
DISL,ioos:station:DISL:KATA:1,2014-10-06T14:00:00Z,30.2583,-88.2131,56.05,1111122 
DISL,ioos:station:DISL:KATA:1,2014-10-06T14:30:00Z,30.2583,-88.2131,58.32,1111122 
DISL,ioos:station:DISL:KATA:1,2014-10-06T15:00:00Z,30.2583,-88.2131,60.6,1111122 
DISL,ioos:station:DISL:KATA:1,2014-10-06T15:30:00Z,30.2583,-88.2131,61.48,1111122 
DISL,ioos:station:DISL:KATA:1,2014-10-06T16:00:00Z,30.2583,-88.2131,62.29,1111122 
DISL,ioos:station:DISL:KATA:1,2014-10-06T16:30:00Z,30.2583,-88.2131,57.65,1111122 
DISL,ioos:station:DISL:KATA:1,2014-10-06T17:00:00Z,30.2583,-88.2131,57.21,1111122 
DISL,ioos:station:DISL:KATA:1,2014-10-06T17:30:00Z,30.2583,-88.2131,60.6,1111122 
DISL,ioos:station:DISL:KATA:1,2014-10-06T18:00:00Z,30.2583,-88.2131,57.95,1111122 
DISL,ioos:station:DISL:KATA:1,2014-10-06T18:30:00Z,30.2583,-88.2131,59.55,1111122 
DISL,ioos:station:DISL:KATA:1,2014-10-06T19:00:00Z,30.2583,-88.2131,59.48,1111122 
DISL,ioos:station:DISL:KATA:1,2014-10-06T19:30:00Z,30.2583,-88.2131,58.77,1111122 
DISL,ioos:station:DISL:KATA:1,2014-10-06T20:00:00Z,30.2583,-88.2131,61.07,1111122 
DISL,ioos:station:DISL:KATA:1,2014-10-06T20:30:00Z,30.2583,-88.2131,63.55,1111122 
DISL,ioos:station:DISL:KATA:1,2014-10-06T21:00:00Z,30.2583,-88.2131,57.07,1111122 
DISL,ioos:station:DISL:KATA:1,2014-10-06T21:30:00Z,30.2583,-88.2131,61.95,1111122 
DISL,ioos:station:DISL:KATA:1,2014-10-06T22:00:00Z,30.2583,-88.2131,59.58,1111122 
DISL,ioos:station:DISL:KATA:1,2014-10-06T22:30:00Z,30.2583,-88.2131,60.8,1111122 
DISL,ioos:station:DISL:KATA:1,2014-10-06T23:00:00Z,30.2583,-88.2131,64.67,1111122 
DISL,ioos:station:DISL:KATA:1,2014-10-06T23:30:00Z,30.2583,-88.2131,61.53,1111122 
DISL,ioos:station:DISL:KATA:1,2014-10-07T00:00:00Z,30.2583,-88.2131,59.7,1111122 